TimeEST,TemperatureF,Dew PointF,Humidity,Sea Level PressureIn,VisibilityMPH,Wind Direction,Wind SpeedMPH,Gust SpeedMPH,PrecipitationIn,Events,Conditions,WindDirDegrees,DateUTC
12:53 AM,44.1,37.9,79,29.54,7.0,South,16.1,27.6,0.02,Rain,Light Rain,180,2013-02-19 05:53:00
1:39 AM,44.6,37.4,76,29.48,10.0,South,17.3,28.8,0.02,Rain,Light Rain,180,2013-02-19 06:39:00
1:53 AM,44.1,37.9,79,29.49,10.0,South,16.1,27.6,0.02,Rain,Light Rain,180,2013-02-19 06:53:00
2:53 AM,44.1,39.0,82,29.44,9.0,South,16.1,27.6,0.04,Rain,Light Rain,180,2013-02-19 07:53:00
3:53 AM,43.0,37.9,82,29.39,10.0,South,17.3,27.6,0.04,Rain,Light Rain,190,2013-02-19 08:53:00
4:53 AM,43.0,37.9,82,29.41,5.0,WSW,23.0,40.3,0.03,Rain,Light Rain,250,2013-02-19 09:53:00
5:03 AM,37.4,33.8,87,29.40,8.0,West,21.9,39.1,N/A,Rain,Light Rain,260,2013-02-19 10:03:00
5:10 AM,37.4,33.8,87,29.41,10.0,West,21.9,28.8,0.01,Rain,Light Rain,260,2013-02-19 10:10:00
5:50 AM,35.6,32.0,87,29.44,10.0,WSW,16.1,29.9,0.01,,Overcast,250,2013-02-19 10:50:00
5:53 AM,36.0,32.0,86,29.46,10.0,WSW,15.0,25.3,0.01,,Overcast,250,2013-02-19 10:53:00
6:53 AM,36.0,30.9,82,29.49,8.0,WSW,18.4,32.2,N/A,,Overcast,240,2013-02-19 11:53:00
7:10 AM,33.8,30.2,87,29.47,9.0,WSW,20.7,33.4,N/A,,Overcast,250,2013-02-19 12:10:00
7:50 AM,33.8,28.4,81,29.50,10.0,West,19.6,32.2,N/A,,Overcast,260,2013-02-19 12:50:00
7:53 AM,33.1,28.0,82,29.52,10.0,WSW,17.3,32.2,N/A,,Overcast,250,2013-02-19 12:53:00
8:53 AM,30.9,26.1,82,29.55,10.0,WSW,19.6,29.9,N/A,,Overcast,250,2013-02-19 13:53:00
9:53 AM,28.9,21.9,75,29.58,5.0,WSW,23.0,33.4,0.00,Snow,Light Snow,250,2013-02-19 14:53:00
10:02 AM,28.4,21.2,74,29.56,6.0,WSW,21.9,32.2,0.00,Snow,Light Snow,240,2013-02-19 15:02:00
10:53 AM,28.0,19.9,72,29.60,5.0,WSW,13.8,26.5,0.00,Snow,Light Snow,250,2013-02-19 15:53:00
11:53 AM,26.6,19.4,74,29.59,3.0,WSW,19.6,25.3,N/A,Snow,Light Snow,240,2013-02-19 16:53:00
1:53 PM,26.1,16.0,66,29.64,6.0,WSW,20.7,31.1,0.00,Snow,Light Snow,250,2013-02-19 18:53:00
2:09 PM,24.8,17.6,74,29.62,3.0,WSW,19.6,29.9,0.00,Snow,Light Snow,240,2013-02-19 19:09:00
2:53 PM,26.1,15.1,63,29.66,10.0,West,21.9,31.1,0.00,,Overcast,260,2013-02-19 19:53:00
3:44 PM,24.8,15.8,69,29.66,5.0,WSW,18.4,31.1,0.00,Snow,Light Snow,250,2013-02-19 20:44:00
3:53 PM,25.0,16.0,69,29.69,6.0,West,21.9,34.5,0.00,Snow,Light Snow,260,2013-02-19 20:53:00
4:01 PM,24.8,15.8,69,29.67,2.5,WSW,19.6,29.9,0.00,Snow,Light Snow,250,2013-02-19 21:01:00
4:45 PM,24.8,17.6,74,29.70,1.5,West,19.6,29.9,0.00,Snow,Light Snow,260,2013-02-19 21:45:00
4:53 PM,24.1,16.0,71,29.73,2.0,West,24.2,35.7,0.00,Snow,Light Snow,260,2013-02-19 21:53:00
5:41 PM,23.0,15.8,74,29.74,0.5,West,17.3,32.2,0.00,Snow,Snow,260,2013-02-19 22:41:00
5:53 PM,21.9,16.0,78,29.77,1.0,West,18.4,34.5,0.00,Snow,Light Snow,260,2013-02-19 22:53:00
5:55 PM,21.2,15.8,80,29.74,2.5,West,24.2,34.5,0.00,Snow,Light Snow,260,2013-02-19 22:55:00
7:53 PM,21.0,12.0,68,29.86,6.0,West,20.7,28.8,0.00,Snow,Light Snow,270,2013-02-20 00:53:00
8:31 PM,19.4,10.4,68,29.83,10.0,West,21.9,28.8,0.00,,Overcast,270,2013-02-20 01:31:00
8:53 PM,19.9,10.0,65,29.88,9.0,West,17.3,28.8,0.00,Snow,Light Snow,260,2013-02-20 01:53:00
9:53 PM,19.0,10.0,68,29.90,10.0,West,23.0,32.2,0.00,,Overcast,270,2013-02-20 02:53:00
10:53 PM,19.0,10.0,68,29.91,10.0,West,20.7,32.2,N/A,,Overcast,260,2013-02-20 03:53:00
11:53 PM,19.0,10.0,68,29.92,10.0,West,17.3,-,N/A,,Overcast,280,2013-02-20 04:53:00